Regional Weather Roundup
Issued by NWS

Home | Current Version | Previous Version | Text Only | Print | Product List | Glossary Off
Versions: 1 2 3 4 5 6 7 8 9 10 11 12 13 14 15 16 17 18 19 20 21 22 23 24 25 26 27 28 29 30 31 32 33 34 35 36 37 38 39 40 41 42 43 44 45 46 47 48 49 50

000
ASUS43 KMPX 180401
RWRMN
WEATHER ROUNDUP FOR MINNESOTA
NATIONAL WEATHER SERVICE TWIN CITIES/CHANHASSEN MN
1100 PM CDT FRI APR 17 2015


NOTE: "FAIR" INDICATES FEW OR NO CLOUDS BELOW 12,000 FEET WITH NO
SIGNIFICANT WEATHER AND/OR OBSTRUCTIONS TO VISIBILITY. N/A MEANS
CURRENT SKY AND/OR WEATHER CONDITIONS ARE NOT AVAILABLE.

MNZ060>063-068>070-180500-
   Twin Cities Metro

CITY           SKY/WX    TMP DP  RH WIND       PRES   REMARKS
TWIN CITIES    PTCLDY    59  34  39 NW6       30.04R
ST PAUL        PTCLDY    55  37  50 CALM      30.04R
CRYSTAL        PTCLDY    52  34  50 CALM      30.03R
BLAINE         CLEAR     54  34  47 CALM      30.04R
LAKEVILLE      MOCLDY    46  37  71 CALM      30.04S
EDEN PRAIRIE   PTCLDY    58  30  34 N6        30.03R
SOUTH ST PAUL  PTCLDY    55  36  47 CALM      30.03S
LAKE ELMO      FAIR      46  37  71 CALM      30.05R
$$
MNZ001>005-007-008-013>017-022>024-027-028-180500-
   Northwest Minnesota

CITY           SKY/WX    TMP DP  RH WIND       PRES   REMARKS
BEMIDJI        CLEAR     50  25  37 N8        30.11R
HALLOCK        CLEAR     43  27  52 NW5       30.17R
ROSEAU         CLEAR     43  32  65 NE5       30.16R
WARROAD        CLEAR     41  34  75 NE7       30.17R
THIEF RVR FALL CLEAR     48  28  46 NE9       30.14R
CROOKSTON      CLEAR     48  30  49 NE9       30.14R
FOSSTON        CLEAR     46  19  34 NE9       30.13R
DETROIT LAKES  CLEAR     55  28  35 N5        30.09R
MOORHEAD       CLEAR     48  21  34 N6        30.09R
PARK RAPIDS    CLEAR     58  22  24 NE7       30.08R
MAHNOMEN       FAIR      46  19  34 N12       30.09R
$$
MNZ006-009>011-018-025>026-180500-
   North Central Minnesota

CITY           SKY/WX    TMP DP  RH WIND       PRES   REMARKS
BAUDETTE       CLEAR     46  30  53 NE12      30.14R
FLAG ISLAND    CLEAR     45  30  57 NE13G18   30.15R
INTL FALLS     CLEAR     45  30  55 NE8       30.13R
WASKISH        CLEAR     45  28  53 CALM      30.13R
BIG FORK       CLEAR     50  25  37 N7        30.11R
LONGVILLE      CLEAR     54  27  35 CALM      30.08R
GRAND RAPIDS   CLEAR     54  19  26 N8        30.08R
ORR            CLEAR     48  27  43 CALM      30.09R
COOK           CLEAR     50  28  43 N6        30.10R
WALKER         FAIR      54  23  30 N6        30.10R
$$
MNZ012-019>021-037-180500-
   Northeast Minnesota

CITY           SKY/WX    TMP DP  RH WIND       PRES   REMARKS
DULUTH         CLEAR     58  28  32 N9        30.05R
ELY            CLEAR     48  28  46 N5        30.09R
HIBBING        CLEAR     53  21  28 N14       30.07R
EVELETH        CLEAR     52  21  30 N7        30.08R
DULUTH HARBOR  CLEAR     54  34  47 N12       30.04R
TWO HARBORS    CLEAR     59  32  36 NW5       30.03R
SILVER BAY     CLEAR     57  23  26 N7        30.03R
GRAND MARAIS     N/A     54  30  40 VRB7G16   30.04R
G MARAIS ARPRT CLEAR     46  27  46 N10G20    30.05R
$$
MNZ029>031-032-039>041-046>048-054>057-064-180500-
   West Central Minnesota

CITY           SKY/WX    TMP DP  RH WIND       PRES   REMARKS
FERGUS FALLS   PTCLDY    55  21  26 NE3       30.07R
WHEATON        PTCLDY    54  19  26 SW5       30.06S
MORRIS         CLEAR     52  21  30 SW3       30.04F
ALEXANDRIA     PTCLDY    52  31  44 SW3       30.06S
ELBOW LAKE     FAIR      53  34  49 CALM      30.05R
WADENA         PTCLDY    55  30  38 NE7       30.07R
GLENWOOD       CLEAR     55  21  26 CALM      30.06S
APPLETON       FAIR      50  41  71 CALM      30.05S
BENSON         PTCLDY    46  25  42 CALM      30.06S
ORTONVILLE     PTCLDY    54  23  30 W6        30.06R
MADISON        PTCLDY    52  14  22 CALM      30.06S
WILLMAR        FAIR      54  25  32 CALM      30.07S
$$
MNZ033>034-036-042>043-049>051-058-059-180500-
   Central Minnesota

CITY           SKY/WX    TMP DP  RH WIND       PRES   REMARKS
ST CLOUD       CLEAR     50  29  44 SW3       30.04R
SAUK CENTRE    FAIR      46  27  48 CALM      30.05F
PAYNESVILLE    CLEAR     41  26  53 CALM      30.06S
AITKIN         PTCLDY    57  23  26 N6        30.04R
PINE RIVER     PTCLDY    57  30  35 N12       30.10R
BRAINERD       PTCLDY    54  27  35 N7        30.06R
STAPLES        PTCLDY    54  23  30 N3        30.07R
LONG PRAIRIE   FAIR      43  30  61 CALM      30.05S
LITTLE FALLS   CLEAR     45  30  57 CALM      30.04F
LITCHFIELD     PTCLDY    54  21  28 CALM      30.06S
BUFFALO        CLEAR     51  29  42 CALM      30.05S
MAPLE LAKE     CLEAR     48  31  52 CALM      30.05S
$$
MNZ037-044-045-052-053-180500-
   East Central Minnesota

CITY           SKY/WX    TMP DP  RH WIND       PRES   REMARKS
PRINCETON      CLEAR     48  30  49 CALM      30.04S
MORA           PTCLDY    43  34  70 CALM      30.05S
CAMBRIDGE      CLEAR     52  36  54 CALM      30.02S
RUSH CITY      MOCLDY    47  31  52 CALM      30.03S
MOOSE LAKE     PTCLDY    46  25  42 CALM      30.01S
HINCKLEY       FAIR      45  34  65 CALM      30.03S
CLOQUET        CLEAR     54  21  28 N9        30.05R
MCGREGOR       CLEAR     55  28  35 N8        30.06R
$$
MNZ071>073-080-081-089-090-097-098-180500-
   Southwest Minnesota

CITY           SKY/WX    TMP DP  RH WIND       PRES   REMARKS
MONTEVIDEO     MOCLDY    55  18  22 N3        30.07S
GRANITE FALLS  MOCLDY    48  20  33 NW3       30.07S
CANBY          MOCLDY    46  24  40 W3        30.07S
MARSHALL       MOCLDY    54  18  24 NW3       30.06S
REDWOOD FALLS  MOCLDY    62  18  18 CALM      30.05S
OLIVIA         MOCLDY    52  19  28 CALM      30.05S
PIPESTONE      CLEAR     55  16  21 NE7       30.06S
WINDOM         CLEAR     52  25  35 N7        30.05F
WORTHINGTON    PTCLDY    57  23  26 N8        30.06S
JACKSON        PTCLDY    55  27  33 VRB5      30.06S
TRACY          PTCLDY    53  21  28 NW5       30.06F
SLAYTON        CLEAR     54  20  26 CALM      30.07S
$$
MNZ065>067-074>077-082>085-091>093-180500-
   South Central Minnesota

CITY           SKY/WX    TMP DP  RH WIND       PRES   REMARKS
MANKATO        MOCLDY    61  30  31 N3        30.04S
NEW ULM        PTCLDY    63  23  22 N5        30.04F
ST JAMES       PTCLDY    55  30  38 N5        30.05F
FAIRMONT       CLEAR     61  32  33 N6        30.04R
GLENCOE        MOCLDY    58  32  37 NW3       30.04S
FARIBAULT      MOCLDY    52  41  66 CALM      30.05S
OWATONNA       MOCLDY    57  39  51 CALM      30.05R
ALBERT LEA     CLEAR     55  45  67 CALM      30.04S
$$
MNZ078>079-086>088-094>096-180500-
   Southeast Minnesota

CITY           SKY/WX    TMP DP  RH WIND       PRES   REMARKS
ROCHESTER      MOCLDY    59  40  49 N8        30.05S
RED WING       MOCLDY    54  36  50 CALM      30.02S
STANTON        MOCLDY    50  39  66 S3        30.03S
DODGE CENTER   MOCLDY    61  41  48 N5        30.04S
WINONA         MOCLDY    61  45  55 CALM      30.02S
AUSTIN         PTCLDY    59  45  58 CALM      30.03F
PRESTON        PTCLDY    61  43  51 N3        30.04S
$$
ABBREVIATIONS USED IN REMARKS
   TC - TEMPERATURES IN CELSIUS
  WCI - WIND CHILL INDEX
   HX - HEAT INDEX
  VSB - VISIBILITY
$$



USA.gov is the U.S. government's official web portal to all federal, state and local government web resources and services.